IN3XSV Weather Reports


time (UTC)temp
C
wind
direction
speed
KPH
gust
KPH
rain 1hr
cm
rain 24hr
cm
rain mn
cm
humidity
%
barometer
mb
20260506191338 12 157 0.0 8.0 0.00 7.54 0.00 79 1003.9
20260506190838 12 180 0.0 0.0 0.00 7.54 0.00 79 1003.7
20260506190338 12 180 0.0 0.0 0.00 7.54 0.00 79 1003.8
20260506185838 12 112 0.0 1.6 0.00 7.54 0.00 79 1003.7
20260506185446 12 112 0.0 8.0 0.00 7.54 0.00 79 1003.6
20260506185338 12 112 0.0 8.0 0.00 7.54 0.00 79 1003.6
20260506184838 12 112 0.0 14.5 0.00 7.54 0.00 79 1003.7
20260506184338 12 135 14.5 16.1 0.00 7.54 0.00 79 1003.6
20260506183838 12 67 14.5 16.1 0.00 7.54 0.00 79 1003.6
20260506183338 12 90 0.0 14.5 0.00 7.54 0.00 78 1003.4
20260506182838 12 112 9.7 27.4 0.00 7.54 0.00 78 1003.3
20260506182415 12 135 9.7 14.5 0.00 7.54 0.00 78 1003.4
20260506182338 12 135 9.7 14.5 0.00 7.54 0.00 78 1003.4
20260506181838 12 157 8.0 24.1 0.00 7.54 0.00 78 1003.3
20260506181338 12 157 16.1 16.1 0.00 7.54 0.00 78 1003.3
20260506180838 13 135 9.7 14.5 0.00 7.54 0.00 78 1003.3
20260506180338 13 157 9.7 12.9 0.00 7.54 0.00 78 1003.2
20260506175838 13 90 6.4 9.7 0.00 7.54 0.00 78 1003.1
20260506175410 13 112 0.0 9.7 0.00 7.54 0.00 77 1003.3
20260506175338 13 112 0.0 9.7 0.00 7.54 0.00 77 1003.3
20260506174838 13 67 0.0 9.7 0.00 7.54 0.00 77 1003.1
20260506174338 13 135 0.0 9.7 0.00 7.54 0.00 77 1003.1
20260506173838 13 135 0.0 16.1 0.00 7.54 0.00 77 1003.1
20260506173338 13 135 12.9 12.9 0.00 7.54 0.00 76 1003.0
20260506172838 13 135 0.0 14.5 0.00 7.54 0.00 76 1002.9
20260506172338 13 135 0.0 6.4 0.00 7.54 0.00 76 1002.8
20260506171838 13 112 0.0 9.7 0.00 7.54 0.00 76 1002.6
20260506171338 13 112 0.0 12.9 0.00 7.54 0.00 76 1002.6
20260506170838 13 112 0.0 17.7 0.00 7.54 0.00 76 1002.7
20260506170338 13 90 0.0 22.5 0.00 7.54 0.00 76 1002.6
20260506165838 13 90 22.5 29.0 0.00 7.54 0.00 76 1002.5
20260506165338 13 112 0.0 25.7 0.00 7.54 0.00 77 1002.6
20260506164838 13 135 16.1 17.7 0.00 7.54 0.00 77 1002.6
20260506164338 13 157 6.4 19.3 0.00 7.54 0.00 78 1002.6
20260506163838 13 157 9.7 16.1 0.00 7.54 0.00 78 1002.4
20260506163338 13 67 0.0 19.3 0.00 7.54 0.00 78 1002.4
20260506162838 13 112 1.6 11.3 0.00 7.54 0.00 77 1002.5
20260506162513 13 112 8.0 16.1 0.00 7.54 0.00 76 1002.5
20260506162338 13 112 6.4 16.1 0.00 7.54 0.00 76 1002.6
20260506161838 13 112 8.0 16.1 0.00 7.54 0.00 76 1002.5
20260506161338 13 90 14.5 20.9 0.00 7.54 0.00 76 1002.5
20260506160838 13 112 0.0 17.7 0.00 7.54 0.00 76 1002.6
20260506160339 13 90 12.9 12.9 0.00 7.54 0.00 76 1002.6
20260506155838 13 135 8.0 19.3 0.00 7.54 0.00 76 1002.6
20260506155338 13 112 12.9 12.9 0.00 7.54 0.00 76 1002.7
20260506154838 13 135 11.3 16.1 0.00 7.54 0.00 77 1002.6
20260506154338 13 112 14.5 14.5 0.00 7.54 0.00 77 1002.6
20260506153838 13 112 0.0 11.3 0.00 7.54 0.00 78 1002.6
20260506153338 13 112 3.2 12.9 0.00 7.54 0.00 78 1002.6
20260506152838 13 112 12.9 12.9 0.00 7.54 0.00 78 1002.7
20260506152338 13 67 6.4 16.1 0.00 7.54 0.00 78 1002.6
20260506151838 13 112 0.0 8.0 0.00 7.54 0.00 78 1002.8
20260506151338 13 112 0.0 11.3 0.00 7.54 0.00 78 1002.7
20260506150838 13 135 11.3 14.5 0.00 7.54 0.00 78 1002.9
20260506150338 13 90 14.5 14.5 0.00 7.54 0.00 79 1002.9
20260506145838 12 112 9.7 11.3 0.00 7.54 0.00 79 1002.8
20260506145338 12 90 11.3 14.5 0.00 7.54 0.00 79 1002.8
20260506144838 12 90 3.2 16.1 0.00 7.54 0.00 79 1002.8
20260506144338 12 90 0.0 11.3 0.00 7.54 0.00 79 1002.9
20260506143838 12 135 0.0 8.0 0.00 7.54 0.00 79 1002.9
20260506143338 12 112 8.0 11.3 0.00 7.54 0.00 79 1003.0
20260506142838 12 157 0.0 0.0 0.00 7.54 0.00 79 1003.0
20260506142338 12 67 0.0 0.0 0.00 7.54 0.00 79 1003.0
20260506141838 12 67 0.0 0.0 0.00 7.54 0.00 79 1003.1
20260506141338 12 90 0.0 4.8 0.00 7.54 0.00 79 1003.1
20260506140838 12 112 0.0 6.4 0.00 7.54 0.00 79 1003.2
20260506140338 12 67 0.0 1.6 0.00 7.54 0.00 79 1003.4
20260506135838 12 157 0.0 0.0 0.05 7.54 0.00 79 1003.6
20260506135338 12 157 0.0 0.0 0.05 7.54 0.00 79 1003.6
20260506134838 12 180 0.0 0.0 0.05 7.54 0.00 78 1003.7
20260506134338 12 67 0.0 0.0 7.24 7.54 0.00 78 1003.8
20260506133838 12 292 0.0 0.0 7.39 7.54 0.00 78 1003.7
20260506133338 12 45 0.0 14.5 7.39 7.54 0.00 78 1003.7
20260506132838 12 45 0.0 11.3 7.39 7.54 0.00 78 1003.8
20260506132409 12 67 0.0 11.3 7.39 7.54 0.00 79 1004.0
20260506132338 12 67 0.0 11.3 7.39 7.54 0.00 79 1004.0
20260506131838 12 45 11.3 14.5 7.39 7.54 0.00 79 1004.0
20260506131338 12 22 3.2 9.7 7.39 7.54 0.00 79 1003.9
20260506130838 12 45 6.4 9.7 7.39 7.54 0.00 79 1003.8
20260506130338 12 67 0.0 3.2 7.34 7.49 0.00 78 1003.9
20260506125838 12 90 0.0 0.0 7.34 7.49 0.00 78 1003.8
20260506125338 12 90 0.0 0.0 7.34 7.49 0.00 77 1003.8
20260506124838 12 180 0.0 12.9 3.51 3.66 0.00 77 1004.0
20260506124338 13 202 9.7 17.7 0.00 0.15 0.00 77 1003.7
20260506123838 13 157 0.0 22.5 0.00 0.15 0.00 77 1003.6
20260506123338 13 112 6.4 32.2 0.00 0.15 0.00 77 1003.1
20260506122838 13 135 19.3 32.2 0.00 0.15 0.00 76 1002.8
20260506122338 13 112 22.5 33.8 0.00 0.15 0.00 76 1002.6
20260506121838 14 67 6.4 27.4 0.00 0.15 0.00 75 1002.7
20260506121338 15 67 27.4 38.6 0.00 0.15 0.00 74 1002.8
20260506120838 15 45 14.5 38.6 0.00 0.15 0.00 74 1002.8
20260506120338 15 135 6.4 38.6 0.00 0.15 0.00 73 1002.8
20260506115838 15 67 33.8 37.0 0.00 0.15 0.00 73 1002.6
20260506115339 15 67 0.0 30.6 0.00 0.15 0.00 72 1002.7
20260506114839 15 90 17.7 40.2 0.00 0.15 0.00 71 1002.6
20260506114338 15 135 8.0 32.2 0.00 0.15 0.00 71 1002.5
20260506113839 15 90 16.1 27.4 0.00 0.15 0.00 71 1002.6
20260506113339 15 67 12.9 25.7 0.00 0.15 0.00 70 1002.7
20260506112839 15 67 9.7 35.4 0.00 0.15 0.00 70 1002.8
20260506112339 16 112 8.0 43.5 0.00 0.15 0.00 69 1002.8
20260506111839 16 112 20.9 40.2 0.00 0.15 0.00 70 1002.9
20260506111339 16 45 0.0 20.9 0.00 0.15 0.00 72 1002.7
20260506110839 15 90 8.0 27.4 0.00 0.15 0.00 71 1003.0
20260506110339 15 135 20.9 22.5 0.00 0.15 0.00 72 1003.0
20260506105839 15 67 22.5 24.1 0.00 0.15 0.00 73 1003.2
20260506105339 14 67 16.1 35.4 0.00 0.15 0.00 73 1003.3
20260506104839 14 157 27.4 27.4 0.00 0.15 0.00 72 1003.6
20260506104339 15 67 11.3 22.5 0.00 0.15 0.00 72 1003.6
20260506103839 14 45 0.0 27.4 0.00 0.15 0.00 71 1003.5
20260506103339 14 90 12.9 37.0 0.00 0.15 0.00 72 1003.6
20260506102839 14 67 4.8 24.1 0.00 0.15 0.00 73 1003.6
20260506102339 15 112 14.5 33.8 0.00 0.15 0.00 73 1003.6
20260506101839 15 112 24.1 30.6 0.00 0.15 0.00 73 1003.6
20260506101339 15 90 6.4 25.7 0.00 0.15 0.00 73 1003.6
20260506100839 15 90 16.1 25.7 0.00 0.15 0.00 74 1003.7
20260506100339 14 112 25.7 25.7 0.00 0.15 0.00 73 1003.6
20260506095839 14 135 16.1 25.7 0.00 0.15 0.00 73 1003.7
20260506095339 13 90 22.5 35.4 0.00 0.15 0.00 73 1003.7
20260506094839 13 90 20.9 25.7 0.00 0.15 0.00 75 1003.7
20260506094339 13 67 16.1 22.5 0.00 0.15 0.00 76 1003.7
20260506093839 14 135 12.9 17.7 0.00 0.15 0.00 77 1003.9
20260506093339 14 112 6.4 22.5 0.00 0.15 0.00 77 1003.8
20260506092839 14 67 4.8 22.5 0.00 0.15 0.00 77 1003.7
20260506092339 14 67 9.7 17.7 0.00 0.15 0.00 78 1003.7
20260506091839 14 67 0.0 20.9 0.00 0.15 0.00 78 1003.7
20260506091339 14 67 6.4 12.9 0.00 0.15 0.00 79 1003.8
20260506090839 13 135 16.1 16.1 0.00 0.15 0.00 79 1003.8
20260506090339 13 135 14.5 14.5 0.00 0.15 0.00 79 1003.9
20260506085839 13 157 0.0 16.1 0.00 0.15 0.00 79 1003.8
20260506085339 12 157 0.0 6.4 0.00 0.15 0.00 79 1003.8
20260506084839 12 180 0.0 6.4 0.00 0.15 0.00 79 1003.8
20260506084339 12 180 0.0 9.7 0.00 0.15 0.00 79 1003.8
20260506083839 12 157 8.0 14.5 0.00 0.15 0.00 79 1004.0
20260506083339 11 135 0.0 14.5 0.00 0.15 0.00 78 1003.9
20260506082839 11 67 0.0 14.5 0.00 0.15 0.00 78 1004.0
20260506082339 11 135 11.3 22.5 0.00 0.15 0.00 78 1004.0
20260506081839 10 112 9.7 20.9 0.05 0.15 0.00 77 1004.0
20260506081339 10 112 9.7 17.7 0.05 0.15 0.00 77 1004.1
20260506080839 10 135 14.5 20.9 0.05 0.15 0.00 77 1004.3
20260506080339 10 135 12.9 24.1 0.05 0.15 0.00 76 1004.4
20260506073339 9 135 6.4 24.1 0.15 0.15 0.00 76 1004.5
20260506072839 9 135 14.5 20.9 0.15 0.15 0.00 76 1004.6
20260506072339 9 67 6.4 14.5 0.10 0.10 0.00 76 1004.7
20260506071839 8 112 0.0 16.1 0.10 0.10 0.00 77 1004.6
20260506071339 8 135 11.3 20.9 0.10 0.10 0.00 77 1004.6
20260506070839 8 112 6.4 19.3 0.10 0.10 0.00 77 1004.7
20260506070339 8 112 6.4 16.1 0.10 0.10 0.00 77 1004.7
20260506062339 8 180 0.0 0.0 0.00 0.00 0.00 78 1004.7
20260506061839 8 135 0.0 0.0 0.00 0.00 0.00 78 1004.8
20260506061339 8 112 0.0 0.0 0.00 0.00 0.00 78 1004.7
20260506060839 8 90 0.0 0.0 0.00 0.00 0.00 78 1004.8
20260506060339 9 67 0.0 11.3 0.00 0.00 0.00 78 1004.8
20260506051339 8 180 0.0 0.0 0.00 0.00 0.00 77 1004.5
20260506050839 8 135 0.0 0.0 0.00 0.00 0.00 77 1004.4
20260506050339 8 157 0.0 9.7 0.00 0.00 0.00 77 1004.4
20260506044839 8 67 0.0 12.9 0.00 0.00 0.00 77 1004.5
20260506044339 8 67 0.0 8.0 0.00 0.00 0.00 77 1004.3
20260506043839 8 67 0.0 6.4 0.00 0.00 0.00 77 1004.4
20260506043339 8 135 0.0 9.7 0.00 0.00 0.00 77 1004.4
20260506042839 8 67 0.0 0.0 0.00 0.00 0.00 77 1004.4
20260506042339 8 67 0.0 0.0 0.00 0.00 0.00 78 1004.2
20260506041839 8 67 0.0 9.7 0.00 0.00 0.00 77 1004.3
20260506041339 8 112 9.7 12.9 0.00 0.00 0.00 77 1004.4
20260506040839 8 90 8.0 19.3 0.00 0.00 0.00 77 1004.4
20260506040339 8 135 0.0 9.7 0.00 0.00 0.00 77 1004.4
20260506035839 8 247 0.0 9.7 0.00 0.00 0.00 77 1004.5
20260506035339 8 202 1.6 11.3 0.00 0.00 0.00 77 1004.8
20260506034840 8 90 0.0 0.0 0.00 0.00 0.00 77 1004.8
20260506034339 8 67 0.0 0.0 0.00 0.00 0.00 77 1004.7
20260506033839 8 67 0.0 0.0 0.00 0.00 0.00 77 1004.8
20260506033339 8 67 0.0 0.0 0.00 0.00 0.00 77 1005.0
20260506032839 8 157 0.0 9.7 0.00 0.00 0.00 76 1004.9
20260506032339 7 157 4.8 12.9 0.00 0.00 0.00 76 1005.0
20260506031839 7 180 4.8 14.5 0.00 0.00 0.00 77 1005.1
20260506031339 8 157 9.7 12.9 0.00 0.00 0.00 77 1005.0
20260506030839 8 112 8.0 8.0 0.00 0.00 0.00 77 1005.1
20260506030340 8 112 0.0 3.2 0.00 0.00 0.00 77 1005.3
20260506025839 8 90 0.0 6.4 0.00 0.00 0.00 77 1005.4
20260506025340 8 45 0.0 6.4 0.00 0.00 0.00 77 1005.3
20260506024840 8 112 0.0 0.0 0.00 0.00 0.00 77 1005.4
20260506024340 8 157 0.0 0.0 0.00 0.00 0.00 77 1005.5
20260506023840 8 157 0.0 0.0 0.00 0.00 0.00 77 1005.4
20260506023340 8 112 0.0 0.0 0.00 0.00 0.00 77 1005.3
20260506022840 8 157 0.0 0.0 0.00 0.00 0.00 77 1005.1
20260506022340 8 90 0.0 0.0 0.00 0.00 0.00 77 1005.3
20260506021840 8 67 0.0 0.0 0.00 0.00 0.00 77 1005.1
20260506021340 8 67 0.0 0.0 0.00 0.00 0.00 77 1005.2
20260506020840 8 180 0.0 0.0 0.00 0.00 0.00 77 1005.2
20260506020340 8 180 0.0 0.0 0.00 0.00 0.00 77 1005.1
20260506015840 8 180 0.0 0.0 0.00 0.00 0.00 77 1005.0
20260506015340 8 157 0.0 0.0 0.00 0.00 0.00 77 1005.0
20260506014840 8 157 0.0 0.0 0.00 0.00 0.00 77 1005.4
20260506014340 7 157 0.0 0.0 0.00 0.00 0.00 77 1005.6
20260506013840 7 157 0.0 0.0 0.00 0.00 0.00 77 1005.6
20260506013340 7 112 0.0 0.0 0.00 0.00 0.00 77 1005.6
20260506012840 8 90 0.0 0.0 0.00 0.00 0.00 77 1005.7
20260506012340 8 67 0.0 0.0 0.00 0.00 0.00 77 1005.7
20260506011840 8 112 0.0 0.0 0.00 0.00 0.00 77 1005.6
20260506011340 8 135 0.0 0.0 0.00 0.00 0.00 77 1005.7
20260506010840 8 112 0.0 0.0 0.00 0.00 0.00 77 1005.6
20260506010340 8 135 0.0 0.0 0.00 0.00 0.00 77 1005.6
20260506005840 8 135 0.0 0.0 0.00 0.00 0.00 77 1005.5
20260506005340 8 135 0.0 0.0 0.00 0.00 0.00 77 1005.6
20260506004840 8 90 0.0 0.0 0.00 0.00 0.00 77 1005.7
20260506004340 8 67 0.0 0.0 0.00 0.00 0.00 77 1005.8
20260506003840 8 67 0.0 0.0 0.00 0.00 0.00 77 1005.7
20260506003340 8 67 0.0 0.0 0.00 0.00 0.00 78 1005.7
20260506002840 8 67 0.0 0.0 0.00 0.00 0.00 78 1005.8
20260506002340 8 67 0.0 0.0 0.00 0.00 0.00 78 1005.8
20260506001840 8 67 0.0 0.0 0.00 0.00 0.00 78 1006.0
20260506001340 8 67 0.0 0.0 0.00 0.00 0.00 78 1005.9
20260506000840 8 67 0.0 0.0 0.00 0.00 0.00 78 1005.8
20260506000340 8 67 0.0 0.0 0.00 0.00 0.00 78 1005.8
20260505235840 8 67 0.0 0.0 0.00 0.00 0.00 78 1005.9
20260505235340 8 67 0.0 0.0 0.00 0.00 0.00 78 1006.0
20260505234840 8 67 0.0 0.0 0.00 0.00 0.00 78 1006.0
20260505234340 9 157 0.0 0.0 0.00 0.00 0.00 78 1006.0
20260505233840 9 157 0.0 0.0 0.00 0.00 0.00 78 1006.0
20260505233340 9 157 0.0 0.0 0.00 0.00 0.00 78 1006.0
20260505232840 9 157 0.0 0.0 0.00 0.00 0.00 78 1006.1
20260505232340 9 112 0.0 0.0 0.00 0.00 0.00 78 1006.2
20260505231840 9 112 0.0 0.0 0.00 0.00 0.00 78 1006.3
20260505231340 9 112 0.0 0.0 0.00 0.00 0.00 78 1006.3
20260505230840 9 112 0.0 0.0 0.00 0.00 0.00 78 1006.2
20260505230340 9 90 0.0 0.0 0.00 0.00 0.00 78 1006.2
20260505225840 9 67 0.0 0.0 0.00 0.00 0.00 78 1006.1
20260505225340 9 90 0.0 0.0 0.00 0.00 0.00 78 1006.1
20260505224840 9 112 0.0 0.0 0.00 0.00 0.00 78 1006.1
20260505224340 9 112 0.0 0.0 0.00 0.00 0.00 78 1006.2
20260505223840 9 112 0.0 0.0 0.00 0.00 0.00 78 1006.2
20260505223340 9 112 0.0 0.0 0.00 0.00 0.00 78 1006.3
20260505222840 9 90 0.0 0.0 0.00 0.00 0.00 78 1006.3
20260505222340 9 67 0.0 0.0 0.00 0.00 0.00 78 1006.3
20260505221840 9 112 0.0 0.0 0.00 0.00 0.00 78 1006.3
20260505221340 9 112 0.0 0.0 0.00 0.00 0.00 78 1006.3
20260505220840 9 157 0.0 0.0 0.00 0.00 0.00 78 1006.3
20260505220340 9 112 0.0 0.0 0.00 0.00 0.00 78 1006.3
20260505215840 9 157 0.0 3.2 0.00 0.00 0.00 78 1006.3
20260505215340 9 90 0.0 0.0 0.00 0.10 0.00 78 1006.3
20260505214840 9 157 0.0 0.0 0.00 0.10 0.00 78 1006.4
20260505214340 9 112 0.0 6.4 0.00 0.10 0.00 78 1006.3
20260505213840 9 157 0.0 9.7 0.00 0.10 0.00 78 1006.3
20260505213340 9 112 0.0 9.7 0.00 0.10 0.00 77 1006.5
20260505212840 9 67 9.7 17.7 0.00 0.10 0.00 77 1006.4
20260505212340 9 90 11.3 12.9 0.00 0.10 0.00 78 1006.5
20260505211840 10 45 8.0 12.9 0.00 0.10 0.00 78 1006.6
20260505211340 10 90 0.0 11.3 0.00 0.10 0.00 78 1006.6
20260505210840 10 45 11.3 11.3 0.00 0.10 0.00 78 1006.6
20260505210340 10 90 0.0 11.3 0.00 0.10 0.00 78 1006.6
20260505205840 10 67 8.0 16.1 0.00 0.10 0.00 78 1006.6
20260505205340 10 67 16.1 16.1 0.00 0.10 0.00 79 1006.5
20260505204840 10 67 1.6 6.4 0.00 0.10 0.00 79 1006.6
20260505204340 10 135 1.6 9.7 0.00 0.10 0.00 79 1006.6
20260505203840 10 112 8.0 11.3 0.00 0.10 0.00 79 1006.4
20260505203340 10 67 3.2 9.7 0.00 0.10 0.00 79 1006.4
20260505202840 11 112 0.0 16.1 0.00 0.10 0.00 79 1006.6
20260505202340 11 67 9.7 16.1 0.00 0.10 0.00 79 1006.5
20260505201840 11 90 1.6 9.7 0.00 0.10 0.00 79 1006.6
20260505201340 11 135 0.0 19.3 0.00 0.10 0.00 79 1006.7
20260505200840 11 112 8.0 12.9 0.00 0.10 0.00 79 1006.7
20260505200340 11 90 0.0 0.0 0.00 0.10 0.00 79 1006.7
20260505195840 11 157 0.0 0.0 0.00 0.10 0.00 79 1006.7
20260505195340 11 157 0.0 0.0 0.00 0.10 0.00 79 1006.6
20260505194840 11 112 0.0 0.0 0.00 0.10 0.00 79 1006.6
20260505194340 10 112 0.0 9.7 0.00 0.10 0.00 79 1006.5
20260505193840 10 90 0.0 1.6 0.00 0.10 0.00 79 1006.5
20260505193340 10 90 0.0 8.0 0.00 0.10 0.00 79 1006.4
20260505192840 10 157 4.8 9.7 0.00 0.10 0.00 79 1006.5
20260505192340 10 135 4.8 9.7 0.00 0.10 0.00 79 1006.6
20260505191840 10 135 6.4 9.7 0.00 0.10 0.00 79 1006.5